Simultaneous Nadir Overpasses (SNOs) Predictions

Prediction of SNOs between AQUA and METOP-A Satellite Orbit:

Table of predicted SNOs for the next 14.0 days since TLE Epoch: 9/13/2014
Index Date (AQUA) Time (AQUA) Lat,Lon (AQUA) SZA (AQUA ) Date (METOP-A) Time (METOP-A) Lat,Lon (METOP-A) SZA (METOP-A ) Distance(km) Time Diff (sec)
1 09/14/2014 17:59:23 73.82, -95.57 70.55 09/14/2014 17:58:55 73.80, -95.49 70.53 3.39 28
2 09/14/2014 18:48:49 -73.85, 72.00 109.41 09/14/2014 18:49:35 -73.87, 72.02 109.39 2.53 46
3 09/17/2014 12:43:57 -73.28, 164.39 108.95 09/17/2014 12:42:49 -73.23, 162.28 108.95 67.87 68
4 09/17/2014 13:33:34 73.77, -29.02 71.58 09/17/2014 13:33:18 73.78, -29.12 71.59 3.31 16
5 09/17/2014 14:23:01 -73.85, 138.44 108.33 09/17/2014 14:23:58 -73.85, 138.38 108.33 1.99 57
6 09/20/2014 08:18:16 -73.70,-130.04 107.43 09/20/2014 08:17:03 -73.65,-130.35 107.47 11.03 73
7 09/20/2014 09:07:46 73.83, 37.31 72.72 09/20/2014 09:07:40 73.80, 37.34 72.70 3.06 6
8 09/20/2014 09:57:12 -73.85,-155.10 107.24 09/20/2014 09:58:20 -73.88,-155.15 107.22 2.96 68
9 09/23/2014 03:52:26 -73.75, -63.69 106.29 09/23/2014 03:51:22 -73.77, -63.66 106.27 2.17 64
10 09/23/2014 04:41:55 73.83, 103.76 73.82 09/23/2014 04:42:01 73.82, 103.79 73.80 2.06 6
11 09/23/2014 05:31:26 -74.11, -89.23 105.88 09/23/2014 05:32:37 -74.09, -88.22 105.93 31.05 71
12 09/25/2014 23:26:35 -73.75, 2.77 105.20 09/25/2014 23:25:44 -73.78, 2.77 105.17 3.09 51
13 09/26/2014 00:16:04 73.84, 170.21 74.91 09/26/2014 00:16:23 73.83, 170.23 74.90 1.45 19




NCC Satellite Simultaneous Nadir Overpasses (SNOs) Prediction Service
